KRP502 LBSF-LRTR

Flight info

Callsign KRP502
Flight time 0h 47m
Altitude 34000
Route OGOTA T228 UTEKA/N0385F200 L610 DONIV/N0376F190 N188 MAVIT
Aircraft A319/M-SDE3FGHIRWY/LB1

Departure

Time 2026-04-28 12:20
Airport Sofia Airport (LBSF)

Arrival

Time 2026-04-28 13:08
Airport Timișoara Traian Vuia International Airport (LRTR)
Time Latitude Longitude Altitude Speed Heading
2026-04-28 11:58 42.69057 23.41144 1750 ft 0 kts 162°
2026-04-28 12:15 42.69056 23.41145 1750 ft 0 kts 162°
2026-04-28 12:15 42.69039 23.41152 1745 ft 9 kts 162°
2026-04-28 12:15 42.69032 23.41222 1748 ft 10 kts 15°
2026-04-28 12:15 42.69098 23.41199 1750 ft 11 kts 340°
2026-04-28 12:16 42.69224 23.41154 1750 ft 24 kts 359°
2026-04-28 12:16 42.69386 23.41191 1750 ft 23 kts 11°
2026-04-28 12:16 42.69462 23.41218 1750 ft 9 kts 21°
2026-04-28 12:16 42.69489 23.41277 1747 ft 8 kts 94°
2026-04-28 12:17 42.69481 23.41380 1746 ft 14 kts 94°
2026-04-28 12:17 42.69467 23.41586 1750 ft 27 kts 94°
2026-04-28 12:17 42.69455 23.41801 1750 ft 22 kts 95°
2026-04-28 12:17 42.69444 23.41998 1749 ft 18 kts 94°
2026-04-28 12:18 42.69433 23.42175 1751 ft 19 kts 94°
2026-04-28 12:18 42.69422 23.42359 1751 ft 22 kts 96°
2026-04-28 12:18 42.69410 23.42574 1750 ft 23 kts 94°
2026-04-28 12:18 42.69452 23.42747 1752 ft 21 kts
2026-04-28 12:19 42.69544 23.42624 1751 ft 18 kts 303°
2026-04-28 12:19 42.69597 23.42544 1744 ft 10 kts 281°
2026-04-28 12:19 42.69609 23.42347 1745 ft 49 kts 274°
2026-04-28 12:19 42.69659 23.41563 1752 ft 114 kts 275°
2026-04-28 12:20 42.69738 23.40279 1981 ft 140 kts 276°
2026-04-28 12:20 42.69981 23.39054 2663 ft 133 kts 302°
2026-04-28 12:20 42.70713 23.38152 2906 ft 156 kts 329°
2026-04-28 12:20 42.71686 23.37375 3408 ft 171 kts 329°
2026-04-28 12:21 42.72785 23.36506 3782 ft 194 kts 329°
2026-04-28 12:21 42.74027 23.35519 4102 ft 220 kts 329°
2026-04-28 12:21 42.75418 23.34409 4565 ft 244 kts 329°
2026-04-28 12:21 42.76945 23.33192 5260 ft 260 kts 329°
2026-04-28 12:22 42.78515 23.31935 6221 ft 264 kts 328°
2026-04-28 12:22 42.80101 23.30661 7194 ft 265 kts 328°
2026-04-28 12:22 42.81702 23.29372 8152 ft 268 kts 328°
2026-04-28 12:22 42.83311 23.28074 9098 ft 271 kts 328°
2026-04-28 12:23 42.84938 23.26761 10045 ft 274 kts 327°
2026-04-28 12:23 42.86635 23.25389 10555 ft 294 kts 327°
2026-04-28 12:23 42.88460 23.23909 10908 ft 316 kts 328°
2026-04-28 12:23 42.90378 23.22354 11630 ft 324 kts 328°
2026-04-28 12:24 42.92311 23.20788 12418 ft 328 kts 328°
2026-04-28 12:24 42.94286 23.19192 13235 ft 332 kts 328°
2026-04-28 12:24 42.96288 23.17576 14053 ft 336 kts 328°
2026-04-28 12:24 42.98315 23.15939 14752 ft 339 kts 328°
2026-04-28 12:25 43.00357 23.14283 15422 ft 343 kts 328°
2026-04-28 12:25 43.02418 23.12607 16118 ft 346 kts 328°
2026-04-28 12:25 43.04475 23.10934 16809 ft 349 kts 328°
2026-04-28 12:25 43.06573 23.09230 17490 ft 353 kts 328°
2026-04-28 12:26 43.08699 23.07502 18163 ft 357 kts 328°
2026-04-28 12:26 43.10852 23.05747 18788 ft 360 kts 327°
2026-04-28 12:26 43.13022 23.03979 19412 ft 362 kts 327°
2026-04-28 12:26 43.15194 23.02207 20040 ft 364 kts 328°
2026-04-28 12:27 43.17372 23.00427 20658 ft 366 kts 327°
2026-04-28 12:27 43.19540 22.98654 21257 ft 368 kts 327°
2026-04-28 12:27 43.21749 22.96844 21876 ft 371 kts 327°
2026-04-28 12:27 43.23970 22.95025 22477 ft 372 kts 327°
2026-04-28 12:28 43.25458 22.93808 22858 ft 374 kts 327°
2026-04-28 12:28 43.28437 22.91373 23569 ft 377 kts 327°
2026-04-28 12:28 43.29968 22.90119 23909 ft 379 kts 327°
2026-04-28 12:28 43.32209 22.88280 24362 ft 381 kts 327°
2026-04-28 12:29 43.36797 22.84502 25293 ft 384 kts 327°
2026-04-28 12:29 43.39067 22.82635 25777 ft 385 kts 327°
2026-04-28 12:29 43.41380 22.80734 26241 ft 387 kts 327°
2026-04-28 12:30 43.43703 22.78823 26719 ft 388 kts 327°
2026-04-28 12:30 43.46030 22.76902 27143 ft 391 kts 327°
2026-04-28 12:30 43.48340 22.74990 27573 ft 393 kts 327°
2026-04-28 12:30 43.50696 22.73037 28001 ft 395 kts 327°
2026-04-28 12:31 43.53066 22.71072 28444 ft 397 kts 327°
2026-04-28 12:31 43.55436 22.69106 28862 ft 398 kts 327°
2026-04-28 12:31 43.57818 22.67132 29283 ft 400 kts 327°
2026-04-28 12:31 43.60180 22.65174 29690 ft 402 kts 327°
2026-04-28 12:32 43.62586 22.63175 30079 ft 403 kts 327°
2026-04-28 12:32 43.64998 22.61164 30427 ft 405 kts 327°
2026-04-28 12:32 43.67421 22.59145 30743 ft 407 kts 327°
2026-04-28 12:32 43.69849 22.57121 31058 ft 408 kts 327°
2026-04-28 12:33 43.72284 22.55088 31374 ft 410 kts 327°
2026-04-28 12:33 43.74696 22.53076 31779 ft 408 kts 326°
2026-04-28 12:33 43.77121 22.51051 32244 ft 406 kts 326°
2026-04-28 12:33 43.79539 22.49029 32694 ft 404 kts 326°
2026-04-28 12:34 43.81945 22.47015 33142 ft 403 kts 326°
2026-04-28 12:34 43.84338 22.45009 33591 ft 401 kts 326°
2026-04-28 12:34 43.86733 22.43000 33998 ft 400 kts 326°
2026-04-28 12:35 43.91336 22.38886 34089 ft 388 kts 318°
2026-04-28 12:35 43.95126 22.33652 34082 ft 385 kts 313°
2026-04-28 12:36 43.98848 22.28302 34086 ft 385 kts 313°
2026-04-28 12:36 44.02554 22.22977 34100 ft 385 kts 313°
2026-04-28 12:37 44.06274 22.17628 34087 ft 384 kts 313°
2026-04-28 12:37 44.09998 22.12261 34096 ft 384 kts 313°
2026-04-28 12:38 44.13694 22.06923 34103 ft 384 kts 313°
2026-04-28 12:38 44.17410 22.01543 34099 ft 384 kts 313°
2026-04-28 12:39 44.21097 21.96195 34111 ft 384 kts 313°
2026-04-28 12:39 44.24803 21.90812 34104 ft 384 kts 312°
2026-04-28 12:40 44.28498 21.85424 34099 ft 384 kts 312°
2026-04-28 12:40 44.32171 21.80051 34106 ft 384 kts 312°
2026-04-28 12:41 44.35867 21.74652 34111 ft 383 kts 312°
2026-04-28 12:41 44.39535 21.69296 34116 ft 383 kts 313°
2026-04-28 12:42 44.43221 21.63884 34120 ft 383 kts 312°
2026-04-28 12:42 44.46882 21.58497 34120 ft 383 kts 312°
2026-04-28 12:43 44.50550 21.53085 34128 ft 382 kts 312°
2026-04-28 12:43 44.54219 21.47682 34127 ft 382 kts 312°
2026-04-28 12:44 44.57854 21.42303 34128 ft 381 kts 312°
2026-04-28 12:44 44.61503 21.36884 34126 ft 381 kts 312°
2026-04-28 12:45 44.65118 21.31521 34128 ft 380 kts 312°
2026-04-28 12:45 44.68754 21.26116 34124 ft 380 kts 312°
2026-04-28 12:46 44.72633 21.21070 34123 ft 382 kts 325°
2026-04-28 12:46 44.75032 21.19410 34110 ft 388 kts 336°
2026-04-28 12:46 44.77691 21.18534 34095 ft 397 kts 348°
2026-04-28 12:46 44.80450 21.18542 34093 ft 409 kts
2026-04-28 12:47 44.83273 21.19279 34098 ft 414 kts
2026-04-28 12:47 44.88938 21.20884 34103 ft 416 kts
2026-04-28 12:48 44.94631 21.22496 34115 ft 417 kts
2026-04-28 12:48 45.00305 21.24102 34126 ft 418 kts
2026-04-28 12:49 45.06025 21.25722 34140 ft 418 kts
2026-04-28 12:49 45.11715 21.27331 34146 ft 418 kts
2026-04-28 12:50 45.17436 21.28957 34153 ft 418 kts
2026-04-28 12:50 45.23116 21.30564 34152 ft 416 kts
2026-04-28 12:51 45.28805 21.30812 33944 ft 407 kts 352°
2026-04-28 12:51 45.31662 21.30787 32606 ft 412 kts 353°
2026-04-28 12:51 45.34491 21.30769 31529 ft 409 kts 353°
2026-04-28 12:51 45.37323 21.30760 30322 ft 410 kts 353°
2026-04-28 12:52 45.40212 21.30746 29232 ft 415 kts 353°
2026-04-28 12:52 45.43096 21.30731 28394 ft 413 kts 353°
2026-04-28 12:52 45.45970 21.30718 27597 ft 410 kts 353°
2026-04-28 12:52 45.48821 21.30709 26848 ft 408 kts 354°
2026-04-28 12:53 45.51616 21.30701 25984 ft 407 kts 354°
2026-04-28 12:53 45.54492 21.30682 24729 ft 418 kts 354°
2026-04-28 12:53 45.57456 21.30785 23489 ft 432 kts
2026-04-28 12:53 45.60390 21.31998 22472 ft 445 kts 20°
2026-04-28 12:54 45.62994 21.34472 21622 ft 455 kts 38°
2026-04-28 12:54 45.65043 21.37956 20566 ft 466 kts 54°
2026-04-28 12:54 45.66347 21.42174 19495 ft 472 kts 72°
2026-04-28 12:54 45.66780 21.46776 18461 ft 466 kts 89°
2026-04-28 12:55 45.66287 21.51308 17308 ft 458 kts 107°
2026-04-28 12:55 45.64923 21.55376 16181 ft 449 kts 125°
2026-04-28 12:55 45.62832 21.58614 15092 ft 439 kts 143°
2026-04-28 12:55 45.60397 21.61190 14041 ft 432 kts 146°
2026-04-28 12:56 45.57999 21.63632 12927 ft 426 kts 146°
2026-04-28 12:56 45.55593 21.66056 11814 ft 419 kts 146°
2026-04-28 12:56 45.53215 21.68431 10913 ft 409 kts 146°
2026-04-28 12:56 45.50951 21.70681 10548 ft 384 kts 146°
2026-04-28 12:57 45.48859 21.72834 10325 ft 359 kts 140°
2026-04-28 12:57 45.47258 21.75419 10104 ft 338 kts 121°
2026-04-28 12:57 45.46157 21.78268 9874 ft 319 kts 116°
2026-04-28 12:57 45.45181 21.80972 9628 ft 302 kts 114°
2026-04-28 12:58 45.44626 21.83759 9394 ft 285 kts 93°
2026-04-28 12:58 45.44762 21.86519 9162 ft 280 kts 72°
2026-04-28 12:58 45.45545 21.89032 8927 ft 275 kts 52°
2026-04-28 12:58 45.46851 21.90984 8809 ft 269 kts 32°
2026-04-28 12:59 45.48495 21.92188 8680 ft 264 kts 14°
2026-04-28 12:59 45.50284 21.92564 8554 ft 274 kts 357°
2026-04-28 12:59 45.52287 21.92000 8439 ft 311 kts 337°
2026-04-28 12:59 45.54141 21.90309 8221 ft 321 kts 317°
2026-04-28 13:00 45.55786 21.88135 7916 ft 322 kts 317°
2026-04-28 13:00 45.57436 21.85945 7599 ft 322 kts 317°
2026-04-28 13:00 45.59051 21.83807 7300 ft 321 kts 317°
2026-04-28 13:00 45.60701 21.81628 6985 ft 321 kts 318°
2026-04-28 13:01 45.62342 21.79462 6678 ft 321 kts 318°
2026-04-28 13:01 45.63985 21.77292 6352 ft 321 kts 318°
2026-04-28 13:01 45.65627 21.75125 6024 ft 321 kts 318°
2026-04-28 13:01 45.67247 21.72987 5719 ft 307 kts 318°
2026-04-28 13:02 45.68761 21.70985 5440 ft 286 kts 318°
2026-04-28 13:02 45.70170 21.69115 5160 ft 268 kts 319°
2026-04-28 13:02 45.71479 21.67376 4928 ft 252 kts 319°
2026-04-28 13:02 45.72717 21.65636 4667 ft 247 kts 310°
2026-04-28 13:03 45.73508 21.63467 4367 ft 246 kts 292°
2026-04-28 13:03 45.74073 21.61162 4034 ft 244 kts 290°
2026-04-28 13:03 45.74634 21.58882 3707 ft 240 kts 292°
2026-04-28 13:03 45.75200 21.56650 3419 ft 238 kts 292°
2026-04-28 13:04 45.75769 21.54413 3070 ft 238 kts 292°
2026-04-28 13:04 45.76327 21.52213 2754 ft 232 kts 292°
2026-04-28 13:04 45.76853 21.50139 2464 ft 217 kts 291°
2026-04-28 13:04 45.77350 21.48175 2195 ft 197 kts 292°
2026-04-28 13:05 45.77794 21.46418 1929 ft 183 kts 293°
2026-04-28 13:05 45.78211 21.44769 1707 ft 166 kts 292°
2026-04-28 13:05 45.78581 21.43305 1474 ft 149 kts 293°
2026-04-28 13:05 45.78921 21.41961 1276 ft 139 kts 293°
2026-04-28 13:06 45.79243 21.40700 1106 ft 133 kts 294°
2026-04-28 13:06 45.79551 21.39465 920 ft 131 kts 291°
2026-04-28 13:06 45.79854 21.38249 722 ft 129 kts 294°
2026-04-28 13:06 45.80150 21.37043 531 ft 128 kts 292°
2026-04-28 13:07 45.80455 21.35859 385 ft 126 kts 292°
2026-04-28 13:07 45.80735 21.34765 342 ft 99 kts 289°
2026-04-28 13:07 45.80941 21.33961 348 ft 74 kts 289°
2026-04-28 13:07 45.81043 21.33540 348 ft 61 kts 289°
2026-04-28 13:08 45.81206 21.32894 344 ft 46 kts 290°
2026-04-28 13:08 45.81307 21.32492 349 ft 40 kts 289°
2026-04-28 13:08 45.81374 21.32192 345 ft 26 kts 268°
2026-04-28 13:08 45.81261 21.32097 342 ft 19 kts 200°
2026-04-28 13:09 45.81142 21.32040 342 ft 16 kts 196°
2026-04-28 13:09 45.81093 21.32017 346 ft 2 kts 200°
2026-04-28 13:09 45.81091 21.32015 345 ft 0 kts 199°